Regional Weather Roundup
Issued by NWS

Home | Current Version | Previous Version | Text Only | Print | Product List | Glossary On
Versions: 1 2 3 4 5 6 7 8 9 10 11 12 13 14 15 16 17 18 19 20 21 22 23 24 25 26 27 28 29 30 31 32 33 34 35 36 37 38 39 40 41 42 43 44 45 46 47 48 49 50
000
ASUS43 KBIS 041110
RWRND

NORTH DAKOTA REGIONAL WEATHER ROUNDUP
NATIONAL WEATHER SERVICE BISMARCK ND
600 AM CDT MON MAY 04 2015

NOTE: "FAIR" INDICATES FEW OR NO CLOUDS BELOW 12,000 FEET WITH NO
SIGNIFICANT WEATHER AND/OR OBSTRUCTIONS TO VISIBILITY.


NDZ001>003-009>011-017-041200-
NORTHWEST NORTH DAKOTA

CITY           SKY/WX    TMP DP  RH WIND       PRES   REMARKS
WILLISTON      FLURRIES  30  23  75 CALM      30.13R
MINOT          CLEAR     36  25  64 SW8       30.14R
MINOT AFB      CLEAR     28  26  90 CALM      30.13S
$$

NDZ018>021-031>035-040>046-041200-
SOUTHWEST NORTH DAKOTA

CITY           SKY/WX    TMP DP  RH WIND       PRES   REMARKS
BISMARCK       CLOUDY    32  27  81 CALM      30.18R
DICKINSON      CLOUDY    38  24  57 E8        30.13R
GARRISON         N/A     31  25  78 VRB3      30.16R
HETTINGER ARPT CLOUDY    38  27  64 E7        30.15R
$$

NDZ004>008-012>016-024-026-027-054-041200-
NORTHEAST NORTH DAKOTA

CITY           SKY/WX    TMP DP  RH WIND       PRES   REMARKS
GRAND FORKS    PTCLDY    32  27  81 NW6       30.14R
GRND FRKS AFB  CLEAR     33  28  82 NW8       30.15R
DEVILS LAKE    CLEAR     36  27  69 CALM      30.15S
$$

NDZ022-023-025-028>030-036>039-047>053-041200-
SOUTHEAST NORTH DAKOTA

CITY           SKY/WX    TMP DP  RH WIND       PRES   REMARKS
FARGO          FAIR      39  26  59 CALM      30.14R
JAMESTOWN      MOCLDY    37  28  70 W3        30.15R
$$



USA.gov is the U.S. government's official web portal to all federal, state and local government web resources and services.